Location: Home
(42.5358°N, 72.7383°W)
Time: 21:55:52
(UTC-04:00)

First-Move - Visible Passes

Search period start: 17 August 2022 00:00
Search period end: 27 August 2022 00:00
Orbit: 572 x 658 km, 97.6° (Epoch: 16 August)

Date Brightness Start Highest point End Pass type
(mag) Time Alt. Az. Time Alt. Az. Time Alt. Az.
17 Aug ? 04:49:19 10° NNE 04:53:36 79° ESE 04:57:43 10° S visible
18 Aug ? 05:05:04 10° N 05:09:17 69° WNW 05:13:23 10° SSW visible
19 Aug ? 03:46:09 10° NE 03:48:38 15° E 03:51:04 10° SE visible
19 Aug ? 05:20:54 10° N 05:24:56 45° WNW 05:28:52 10° SW visible
20 Aug ? 04:01:10 10° NE 04:04:29 22° E 04:07:43 10° SE visible
21 Aug ? 04:16:29 10° NNE 04:20:17 32° E 04:23:59 10° SSE visible
22 Aug ? 04:31:58 10° NNE 04:36:02 49° E 04:40:01 10° S visible
23 Aug ? 04:47:34 10° NNE 04:51:45 76° ESE 04:55:50 10° S visible
24 Aug ? 05:03:16 10° N 05:07:25 71° WNW 05:11:28 10° SSW visible
25 Aug ? 03:44:26 10° ENE 03:46:44 14° E 03:48:59 10° SE visible
25 Aug ? 05:19:04 10° N 05:23:03 46° WNW 05:26:57 10° SW visible
26 Aug ? 03:59:22 10° NE 04:02:32 21° E 04:05:40 10° SE visible
26 Aug ? 05:34:57 10° N 05:38:38 31° WNW 05:42:14 10° SW visible
